Weather in Molochkovo-Dubenets

Russia / Pskov Oblast     57°50′59″N   27°55′58″E
temp.,
°C
wind,
m/s
gust,
m/s
humid.,
%
clouds,
%
prec.,
mm/h
press.,
hPa
HPBL,
m
18 may, tue
tue1800:00+12nne269893 1.3 1005181
03:00+12nnw3799100 1.4 1004218
06:00+12n4898100 1.3 1003274
09:00+13n5997100 2.4 1003376
12:00+14nne2798100 1.4 1003372
15:00+17ne2395100 2.2 1002237
18:00+20sse3780100 1.5 1001663
21:00+16sse248946 2.4 100176
19 may, wed
wed1900:00+14sse3696100 0.1 1001153
03:00+14sse1197100 0.1 100025
06:00+14sse1198100 1.1 99927
09:00+14sw1299100 2.6 999114
12:00+15w2389100 2.7 1000470
15:00+14ssw2492100 3.1 1001365
18:00+14sw3592100 0.9 1002541
21:00+10wsw3695100 1.0 1004385
20 may, thu
thu2000:00+10w2595100 0.0 1005479
03:00+9w3795100 0.1 1006609
06:00+9wnw4894100 0.0 1006509
09:00+9nw4891100 0.1 1007410
12:00+12nnw5878100 0.0 1007829
15:00+13n61066100 0.0 10071318
18:00+13nw4770100 0.1 10071026
21:00+11w3582100 0.2 1008121
21 may, fri
fri2100:00+8w411835 0.0 1009321
03:00+6wsw310880 0.0 1011206
06:00+6sw39890 0.0 1011241
09:00+11sw57630 0.0 1012826
12:00+14wsw575551 0.3 10121707
15:00+14wsw5851100 0.8 10132129
18:00+15sw585179 0.0 10131909
21:00+10sw33725 0.0 101455
22 may, sat
sat2200:00+7ssw378480 0.0 1015128
03:00+7s3985100 0.0 1014191
06:00+9sse41275100 0.0 1014370
09:00+11sse61472100 0.0 1013503
12:00+17s71457100 0.0 10121941
15:00+14s51175100 0.6 1012730
18:00+15s41175100 0.1 1011845
21:00+14s4128199 0.1 1011388